Regional Weather Roundup
Issued by NWS

Home | Current Version | Previous Version | Text Only | Print | Product List | Glossary On
Versions: 1 2 3 4 5 6 7 8 9 10 11 12 13 14 15 16 17 18 19 20 21 22 23 24 25 26 27 28 29 30 31 32 33 34 35 36 37 38 39 40 41 42 43 44 45 46 47 48 49 50
000
ASUS44 KOUN 260800
RWROK

WEATHER ROUNDUP FOR OKLAHOMA
NATIONAL WEATHER SERVICE NORMAN OK
300 AM CDT FRI MAY 26 2017

NOTE: "FAIR" INDICATES FEW OR NO CLOUDS BELOW 12,000 FEET WITH NO
      SIGNIFICANT WEATHER AND/OR OBSTRUCTIONS TO VISIBILITY.

OKZ001>007-009>012-014-015-017-260900-
NORTHWEST OKLAHOMA AND THE PANHANDLE

CITY           SKY/WX    TMP DP  RH WIND       PRES   REMARKS
GAGE           PTCLDY    57  52  83 W8        29.55S
GUYMON         CLEAR     56  52  86 NW15      29.72R
$$

OKZ016-021>023-033>039-044-045-260900-
SOUTHWEST OKLAHOMA

CITY           SKY/WX    TMP DP  RH WIND       PRES   REMARKS
LAWTON/REGL    CLEAR     71  62  73 CALM      29.57R
LAWTON/FT SILL CLEAR     74  64  71 SW6       29.56R
CLINTON        PTCLDY    68  58  70 S12       29.55S
HOBART         PTCLDY    71  53  52 S13       29.55R
ALTUS AFB      PTCLDY    64  45  49 S7        29.56R
$$

OKZ018>020-024>031-260900-
CENTRAL OKLAHOMA

CITY           SKY/WX    TMP DP  RH WIND       PRES   REMARKS
OKLAHOMA CITY  PTCLDY    75  62  64 S15       29.54S
OKC/WILEY POST CLEAR     77  63  61 S20G26    29.53S
OKC/TINKER AFB CLEAR     73  62  67 S17       29.54S
STILLWATER     PTCLDY    73  60  63 S13       29.51F
GUTHRIE        CLEAR     76  62  62 S16       29.51S
$$

OKZ008-013-054>072-260900-
NORTHEAST OKLAHOMA

CITY           SKY/WX    TMP DP  RH WIND       PRES   REMARKS
TULSA          MOCLDY    74  63  68 S14       29.54F
TULSA/JONES    MOCLDY    74  61  63 S8        29.55F
PONCA CITY     PTCLDY    71  60  68 E9G20     29.56R
BARTLESVILLE   PTCLDY    71  61  70 VRB3      29.62R
MUSKOGEE       MOCLDY    70  62  76 SE9       29.61S
$$

OKZ032-040>043-046>053-073>077-260900-
SOUTH CENTRAL/SOUTHEAST OKLAHOMA

CITY           SKY/WX    TMP DP  RH WIND       PRES   REMARKS
MCALESTER      PTCLDY    76  60  57 S13G31    29.62S
$$





USA.gov is the U.S. government's official web portal to all federal, state and local government web resources and services.